SOAR (48851 NORAD) Tracking and Keplerian Element Data

This shows tracking and keplerian element data for the satellite.

Feedback or suggestion? Click here.




ElementValue
Catalog48851
NameSOAR
Epoch Orbit773
Epoch Day214.74783143
Epoch Year2021
RAAN111.8772
Inclination51.6403
Eccentricity0.0002764
Argument of Perigee310.3189
Mean Anonmoly49.7559
Mean Motion15.51369545
Decay Rate0.00014588
L11 48851U 98067SM 21214.74783143 .00014588 00000-0 25072-3 0 9998
L22 48851 51.6403 111.8772 0002764 310.3189 49.7559 15.51369545 7738

Live tracking and technical data element details for SOAR (NORAD 48851). SOAR can be tracked NOW for your location showing map with azimuth and elevation plus other details from your city location.

Track the satellite on the map from your city or location and see movement details for azimuth, elevation, latitude, longitude, range, height, and movement on the map or in text.







IsCatalogInMostPopularTable: catalog: 48851, numindb: 10
Update: records affected: 1



GetName: 48851 SOAR

Hit Count: updated at: Tue, 03 Aug 2021 20:30:20 GMT